{"data":{"norad_id":55809,"intl_designator":"2023-029P","name":"ONEWEB-0645","alt_names":[],"object_type":"PAYLOAD","status":"ACTIVE","operator":null,"country":"UK","launch_date":"2023-03-09","launch_site_code":"AFETR","launch_vehicle":null,"mission":null,"orbit_class":"UNKNOWN","rcs_meters":null,"size_class":null,"mass_kg":null,"dimensions":null,"purposes":["comms"],"wikipedia_slug":null,"has_3d_model":false,"image_url":null,"decayed_at":null,"tle_current":{"epoch":"2026-09-19T21:16:44.863968Z","epoch_age_seconds":71235,"freshness":"FRESH","line1":"1 55809U 23029P   26262.88663037  .00000044  00000+0  78635-4 0  9992","line2":"2 55809  87.9103 286.1051 0002055  79.5131 280.6233 13.19725201171394","mean_motion":13.19725201,"eccentricity":0.0002055,"inclination_deg":87.9103,"raan_deg":286.1051,"arg_perigee_deg":79.5131,"mean_anomaly_deg":280.6233,"bstar":7.8635e-5,"rev_number":17139,"period_min":109.11362448098,"perigee_km":1184.2154011425,"apogee_km":1187.3241668308,"semimajor_km":7563.9067839866,"source":"CELESTRAK","updated_at":"2026-09-20T09:00:44.761612Z"}}}